Selvagem Grande, Portugal

12:07 PM WEST en Octubre 20, 2018 (GMT +0100)
Selvagem Grande

Tiempo Historia de 60015 - Enero, 2018

Change the Weather History Date:

Domingo, Enero 14, 2018

  Actual Average Record
Temperature  
Temperatura media 55 ° F -  
Temperatura máxima 59 ° F 58 ° F - ()
Temperatura mínima 51 ° F 49 ° F - ()
Degree Days  
Grados día de calefacción 10    
Growing Degree Days 5 (Base 50)    
Moisture  
Punto de rocío 51 ° F    
Average Humidity 87    
Maximum Humidity 100    
Minimum Humidity 72    
Precipitación  
Precipitación 0.01 pul - - ()
Presión al nivel del mar  
Presión al nivel del mar 30.29 pul    
Viento  
Velocidad del viento 8 mph ()    
Velocidad máxima del viento 15 mph    
Max Gust Speed -    
Visibilidad 6.4 Millas    
Eventos Niebla , Lluvia    
T = Trace of Precipitation, MM = Missing Value Source: Averaged Metar Reports

Daily Weather History Graph

Daily Weather History Graph

Search for Another Location

Airport or City:

Astronomía

Jan. 14, 2018 Salida Puesta
Hora real 7:58 AM WET 6:29 PM WET
Crepúsculo civil 7:33 AM WET 6:55 PM WET
Crepúsculo náutico 7:04 AM WET 7:24 PM WET
Crepúsculo astronómico 6:36 AM WET 7:52 PM WET
Luna 5:45 AM WET (1/14) 4:37 PM WET (1/14)
Horas de luz 11h 21m
Horas de luz
10h 31m
Creciente menguante, 6% of the Moon is Illuminated
Ene 14
Creciente menguante
Ene 17
Nueva
Ene 24
Cuarto creciente
Ene 31
Luna llena
Feb 7
Cuarto menguante

Hourly Weather History & Observations

Hora (WET) Temp. Punto de rocío Humedad Presión Visibilidad Wind Dir Velocidad del viento Velocidad de ráfagas Precip Eventos Condiciones
12:00 AM 55 ° F 55 ° F 98% 30.31 pul 2 mi Oeste 8.1 mph - -   Precipitación desconocida
12:00 AM 55.4 ° F 55.4 ° F 100% 30.30 pul 4.3 mi Oeste 6.9 mph - N/A Niebla , Lluvia Lluvia débil
12:30 AM 55.4 ° F 55.4 ° F 100% 30.30 pul 5.6 mi ONO 8.1 mph - N/A Niebla Bancos de niebla
1:30 AM 55.4 ° F 55.4 ° F 100% 30.30 pul 0.4 mi ONO 4.6 mph - N/A Niebla , Lluvia Lluvia débil
2:00 AM 55.4 ° F 55.4 ° F 100% 30.27 pul 6.2 mi ONO 4.6 mph - N/A   Neblina
2:30 AM 55.4 ° F 55.4 ° F 100% 30.27 pul 5.6 mi NO 4.6 mph - N/A   Nublado
3:00 AM 55 ° F 54 ° F 98% 30.27 pul 7 mi Oeste 6.9 mph - -   Precipitación desconocida
3:00 AM 55.4 ° F 55.4 ° F 100% 30.27 pul 3.7 mi Oeste 5.8 mph - N/A Niebla , Lluvia Lluvia débil
4:00 AM 55.4 ° F 55.4 ° F 100% 30.27 pul 2.2 mi Oeste 5.8 mph - N/A Niebla , Lluvia Lluvia débil
4:30 AM 55.4 ° F 55.4 ° F 100% 30.27 pul - NO 2.3 mph - N/A Niebla , Lluvia Lluvia débil
5:00 AM 55.4 ° F 53.6 ° F 94% 30.27 pul 6.2 mi Norte 6.9 mph - N/A Lluvia Lluvia débil
5:30 AM 55.4 ° F 53.6 ° F 94% 30.27 pul 6.2 mi Norte 5.8 mph - N/A   Nublado
6:00 AM 54 ° F 52 ° F 91% 30.27 pul 12 mi NNO 8.1 mph - -   Muy nublado
6:00 AM 53.6 ° F 53.6 ° F 100% 30.27 pul 6.2 mi NNO 8.1 mph - N/A   Muy nublado
6:30 AM 53.6 ° F 53.6 ° F 100% 30.27 pul 6.2 mi NNO 9.2 mph - N/A   Llovizna débil
7:00 AM 53.6 ° F 51.8 ° F 94% 30.27 pul 6.2 mi NNO 9.2 mph - N/A   Llovizna débil
7:30 AM 53.6 ° F 51.8 ° F 94% 30.27 pul 6.2 mi Norte 9.2 mph - N/A   Muy nublado
8:00 AM 53.6 ° F 51.8 ° F 94% 30.30 pul 6.2 mi NNO 10.4 mph - N/A   Muy nublado
8:30 AM 53.6 ° F 50.0 ° F 88% 30.30 pul 6.2 mi Norte 8.1 mph - N/A   Muy nublado
9:00 AM 54 ° F 49 ° F 79% 30.30 pul 19 mi NNO 6.9 mph - -   Muy nublado
9:00 AM 53.6 ° F 48.2 ° F 82% 30.30 pul 6.2 mi NNO 5.8 mph - N/A   Muy nublado
9:30 AM 55.4 ° F 50.0 ° F 82% 30.30 pul 6.2 mi Norte 6.9 mph - N/A   Muy nublado
10:00 AM 55.4 ° F 50.0 ° F 82% 30.33 pul 6.2 mi Norte 6.9 mph - N/A   Muy nublado
10:30 AM 55.4 ° F 50.0 ° F 82% 30.33 pul 6.2 mi Norte 5.8 mph - N/A   Muy nublado
11:30 AM 57.2 ° F 50.0 ° F 77% 30.33 pul 6.2 mi NNE 8.1 mph - N/A   Muy nublado
12:00 PM 57 ° F 52 ° F 77% 30.32 pul 19 mi NNO 10.4 mph - -   Nublado
12:00 PM 57.2 ° F 51.8 ° F 82% 30.33 pul 6.2 mi NNO 8.1 mph - N/A   Nublado
1:00 PM 55.4 ° F 51.8 ° F 88% 30.30 pul 6.2 mi Norte 10.4 mph - N/A   Nublado
1:30 PM 59.0 ° F 51.8 ° F 77% 30.30 pul 6.2 mi Norte 12.7 mph - N/A   Muy nublado
2:00 PM 55.4 ° F 50.0 ° F 82% 30.30 pul 6.2 mi Norte 12.7 mph - N/A   Muy nublado
2:30 PM 57.2 ° F 48.2 ° F 72% 30.27 pul 6.2 mi Norte 13.8 mph - N/A   Nublado
3:00 PM 57.2 ° F 48.2 ° F 72% 30.27 pul 6.2 mi Norte 10.4 mph - N/A   Nublado
3:30 PM 57.2 ° F 48.2 ° F 72% 30.27 pul 6.2 mi NNO 13.8 mph - N/A   Muy nublado
4:00 PM 57.2 ° F 48.2 ° F 72% 30.27 pul 6.2 mi NNO 11.5 mph - N/A   Muy nublado
4:30 PM 55.4 ° F 51.8 ° F 88% 30.27 pul 6.2 mi NNO 11.5 mph - N/A   Muy nublado
5:30 PM 55.4 ° F 48.2 ° F 77% 30.27 pul 6.2 mi Norte 9.2 mph - N/A   Muy nublado
6:00 PM 55.4 ° F 50.0 ° F 82% 30.30 pul 6.2 mi NNO 10.4 mph - N/A   Muy nublado
6:30 PM 53.6 ° F 48.2 ° F 82% 30.30 pul 6.2 mi NNO 10.4 mph - N/A   Muy nublado
7:00 PM 53.6 ° F 48.2 ° F 82% 30.30 pul 6.2 mi NNO 11.5 mph - N/A   Nubes dispersas
7:30 PM 53.6 ° F 46.4 ° F 77% 30.30 pul 6.2 mi NO 12.7 mph - N/A   Nubes dispersas
8:00 PM 53.6 ° F 48.2 ° F 82% 30.30 pul 6.2 mi NNO 13.8 mph - N/A   Nubes dispersas
8:30 PM 53.6 ° F 46.4 ° F 77% 30.30 pul 6.2 mi NNO 11.5 mph - N/A   Nubes dispersas
9:00 PM 51.8 ° F 46.4 ° F 82% 30.33 pul 6.2 mi NNO 12.7 mph - N/A   Nubes dispersas
9:30 PM 53.6 ° F 46.4 ° F 77% 30.33 pul 6.2 mi NO 13.8 mph - N/A   Nubes dispersas
10:00 PM 53.6 ° F 48.2 ° F 82% 30.33 pul 6.2 mi NO 13.8 mph - N/A   Muy nublado
11:00 PM 51.8 ° F 48.2 ° F 88% 30.33 pul 3.7 mi NO 15.0 mph - N/A   Llovizna débil
11:30 PM 51.8 ° F 50.0 ° F 94% 30.33 pul 6.2 mi NO 12.7 mph - N/A   Muy nublado